This is the latest recevied weather packets stored in our database for station/object WX5RP. If no packets are shown the sender has not sent any weather packets the latest 10 day(s).
| Time | Temp. | Humidity | Pressure | Rain* | Wind** | Luminosity | Snow |
|---|---|---|---|---|---|---|---|
| 1787962817 | 28.33° C | 19% | 1014.6 hPa | 0 mm | - | 443 W/m² | - |
| 1787962217 | 28.33° C | 19% | 1014.4 hPa | 0 mm | - | 416 W/m² | - |
| 1787961617 | 28.89° C | 18% | 1014.6 hPa | 0 mm | - | 506 W/m² | - |
| 1787961016 | 28.89° C | 22% | 1014.7 hPa | 0 mm | - | 597 W/m² | - |
| 1787960417 | 27.78° C | 21% | 1014.6 hPa | 0 mm | - | 627 W/m² | - |
| 1787959817 | 26.67° C | 26% | 1014.7 hPa | 0 mm | - | 226 W/m² | - |
| 1787959217 | 27.22° C | 21% | 1014.7 hPa | 0 mm | - | 179 W/m² | - |
| 1787958617 | 27.78° C | 21% | 1014.4 hPa | 0 mm | - | 143 W/m² | - |
| 1787958016 | 28.89° C | 19% | 1014.7 hPa | 0 mm | - | 741 W/m² | - |
| 1787957416 | 27.78° C | 22% | 1014.9 hPa | 0 mm | - | 520 W/m² | - |
| 1787956816 | 28.33° C | 22% | 1015 hPa | 0 mm | - | 549 W/m² | - |
| 1787956216 | 28.33° C | 24% | 1015.1 hPa | 0 mm | - | 731 W/m² | - |
| 1787955616 | 27.78° C | 23% | 1015 hPa | 0 mm | - | 725 W/m² | - |
| 1787955016 | 28.33° C | 24% | 1015.1 hPa | 0 mm | - | 778 W/m² | - |
| 1787954416 | 28.33° C | 24% | 1015.4 hPa | 0 mm | - | 793 W/m² | - |
| 1787953816 | 28.33° C | 19% | 1015.8 hPa | 0 mm | - | 48 W/m² | - |
| 1787953216 | 27.78° C | 23% | 1016.4 hPa | 0 mm | - | 832 W/m² | - |
| 1787952616 | 27.78° C | 23% | 1016.4 hPa | 0 mm | - | 848 W/m² | - |
| 1787952016 | 27.78° C | 25% | 1016.3 hPa | 0 mm | - | 866 W/m² | - |
| 1787951421 | 27.78° C | 27% | 1016.3 hPa | 0 mm | - | 873 W/m² | - |
| 1787950816 | 27.78° C | 23% | 1016.4 hPa | 0 mm | - | 873 W/m² | - |
| 1787950216 | 27.78° C | 22% | 1016.4 hPa | 0 mm | - | 881 W/m² | - |
| 1787949616 | 27.22° C | 24% | 1016.7 hPa | 0 mm | - | 891 W/m² | - |
| 1787949017 | 26.67° C | 23% | 1016.3 hPa | 0 mm | - | 898 W/m² | - |
| 1787948416 | 26.67° C | 24% | 1016.6 hPa | 0 mm | - | 906 W/m² | - |
* Rain latest hour (hover to see other rain measurements)
** Current wind speed in m/s (hover to see current wind gust speed)